SCP
0 0 0 0 0 0 0 0 0 0 0 0 0 0 0 0 0 0 0 0 0 0 0 0 0 0 0 0 0 0 0 0 0 0 -0 -0 0 -0 0 0 -0 0 0 -0 0 0 0
0 0 0 0 0 0 0 0 0 0 0 0 0 0 0 0 0 0 0 0 0 0 -0 0 0 0 0 0 0 0 0 0 0 -0 -0 -0 0 0 0 -0 0 0 -0 0 0 0 0
0 0 0 0 0 0 0 0 0 0 0 0 0 0 0 0 0 0 0 0 0 0 -0 0 0 0 0 -0 0 0 0 0 0 0 -0 0 0 0 0 0 0 0 0 -0 0 0 0
0 0 0 0 0 0 0 0 0 0 0 0 0 -0 0 -0 0 -0 -0 0 -0 -0 0 0 0 0 0 0 0 0 0 0 -0 -0 -0 0 0 0 0 0 0 0 0 0 -0 -0 0
0 0 0 0 0 0 0 0 0 0 -0 0 -0 -0 -0 0 -0 -0 0 0 -0 0 0 0 0 0 0 0 0 0 -0 0 0 0 -0 0 0 0 0 0 0 -0 0 0 0 -0 0
0 0 0 0 0 0 0 0 0 -0 0 -0 0 0 0 -0 -0 -0 0 -0 -0 0 0 0 0 0 0 0 0 0 -0 -0 0 0 0 0 -0 0 0 0 0 0 0 0 0 0 0
0 0 0 0 0 0 0 0 0 0 0 0 0 0 -0 -0 0 -0 -0 0 0 0 0 0 0 0 0 0 0 -0 0 0 -0 0 0 0 -0 -0 -0 0 -0 -0 0 0 0 0 0
0 0 0 0 0 0 -0 0 0 0 0 0 -0 -0 -0 -0 -0 0 -0 0 0 0 -0 -0 -0 0 -0 -0 0 0 0 0 -0 -0 0 -0 0 0 0 0 0 0 0 0 0 0 0
0 0 0 0 0 -0 0 0 0 0 0 0 0 0 0 -0 -0 0 0 0 -0 -0 0 -0 0 -0 -0 0 -0 0 0 0 -0 -0 -0 0 0 -0 0 0 0 -0 0 0 0 0 0
0 0 0 0 0 -0 -0 0 0 -0 -0 -0 0 0 0 0 -0 -0 0 0 -0 0 0 0 0 0 0 0 0 -0 -0 0 -0 -0 -0 0 0 -0 0 0 0 -0 0 -0 0 0 -0
0 0 0 0 -0 -0 0 0 0 -0 -0 0 0 0 0 -0 -0 -0 -0 -0 -0 -0 0 0 0 0 0 0 -0 -0 0 0 -0 -0 -0 0 0 0 0 0 -0 0 0 0 0 0 0
0 0 0 0 0 -0 0 0 0 0 0 0 -0 -0 0 0 0 0 -0 -0 -0 -0 0 0 0 0 0 0 0 -0 -0 -0 -0 -0 0 -0 0 0 0 -0 0 0 0 0 -0 0 -0
0 0 0 0 0 0 0 0 0 0 0 0 -0 -0 -0 -0 -0 -0 -0 -0 0 -0 0 0 0 0 0 0 -0 0 -0 -0 0 0 0 0 0 0 0 0 0 -0 -0 0 0 0 0
0 0 0 0 0 0 0 0 0 0 0 0 -0 -0 0 0 -0 -0 -0 0 0 -0 0 0 0 -0 0 0 0 0 0 0 0 0 0 0 0 0 0 0 0 0 0 0 0 0 0
0 0 0 0 0 0 0 0 0 0 0 0 -0 0 0 0 0 -0 -0 -0 -0 0 0 0 -0 0 0 0 0 0 0 0 0 0 0 0 0 0 0 -0 0 0 0 0 0 0 0
0 0 0 0 0 0 0 0 0 0 0 -0 0 0 -0 0 0 -0 0 0 0 0 0 0 0 0 0 0 0 0 0 0 0 0 0 0 0 0 0 0 0 0 0 0 0 0 0
0 0 0 0 0 0 0 0 0 0 0 -0 0 0 0 0 0 0 0 0 0 0 0 0 0 0 0 0 0 0 0 0 0 0 0 0 0 0 0 0 0 0 0 0 0 0 0
0 0 0 0 0 0 0 0 0 0 -0 0 0 0 0 0 0 0 -0 0 0 0 0 0 0 0 0 0 0 0 0 0 0 0 0 0 0 0 0 0 0 0 0 0 0 0 0
0 0 0 0 0 0 0 0 0 0 0 0 0 0 0 0 0 -0 0 0 0 0 0 0 0 0 0 0 0 0 0 0 0 0 0 0 0 0 0 0 0 0 0 0 0 0 0
0 0 0 0 0 0 0 0 0 0 0 0 0 0 0 0 0 0 0 0 0 0 0 0 0 0 0 0 0 0 0 0 0 0 0 0 0 0 0 0 0 0 0 0 0 0 0
0 0 0 0 0 0 0 0 0 0 0 0 0 0 0 0 0 0 0 0 0 0 0 0 0 0 0 0 0 0 0 0 0 0 0 0 0 0 0 0 0 0 0 0 0 0 0
0 0 0 0 0 0 0 0 0 0 0 0 0 0 0 0 0 0 0 0 0 0 0 0 0 0 0 0 0 0 0 0 0 0 0 0 0 0 0 0 0 0 0 0 -0 0 -0
0 0 0 0 0 0 0 0 0 0 0 0 0 0 0 0 0 0 0 0 0 0 0 0 0 0 0 0 0 0 0 0 0 0 0 0 0 0 0 0 0 0 0 0 0 0 0
0 0 0 0 0 0 0 0 0 0 0 0 0 0 0 0 0 0 0 0 0 0 0 0 0 0 0 0 0 0 0 0 0 0 0 0 0 0 0 0 0 0 0 0 0 0 0
0 0 0 0 0 0 0 0 0 0 0 0 0 0 0 0 0 0 0 0 0 0 0 0 0 0 0 0 0 0 0 0 0 0 0 0 0 0 0 0 0 0 0 0 0 0 0
0 0 0 0 0 0 0 0 0 0 0 0 0 0 0 0 0 0 0 0 0 0 0 0 0 0 0 0 0 0 0 0 0 0 0 0 0 0 0 0 0 0 0 0 -0 -0 0
0 0 0 0 0 0 0 0 0 0 0 0 0 0 0 0 0 0 0 0 0 0 0 0 0 0 0 0 0 0 0 0 0 0 0 -0 0 0 -0 0 0 0 0 0 -0 0 0
0 0 0 0 0 0 0 0 0 0 0 0 0 0 0 0 0 0 0 0 0 0 0 0 0 0 0 0 0 0 0 0 0 0 0 0 0 0 -0 0 0 0 0 -0 0 -0 0
0 0 0 0 0 0 0 0 0 0 0 0 0 0 0 0 0 0 0 0 0 0 0 0 0 0 0 0 0 0 0 0 0 0 0 0 0 0 0 0 0 0 -0 0 -0 -0 0
Wind_Speed_500mb
37 38 37 37 38 38 37 37 38 39 40 42 47 51 53 52 50 49 48 46 41 35 29 28 28 26 21 16 34 14 8 6 7 19 25 24 33 31 33 36 48 40 42 53 54 58 10
39 40 40 40 39 40 41 41 42 42 42 44 45 49 52 51 51 50 51 48 47 37 31 27 29 26 19 27 9 12 10 6 11 16 19 28 28 28 36 35 35 40 45 40 32 41 30
39 41 42 43 43 41 42 44 45 45 45 45 47 48 51 53 53 53 53 52 47 42 31 23 26 24 23 44 11 9 16 15 15 15 21 22 29 35 24 30 36 35 23 31 44 32 36
42 44 43 42 41 43 43 44 44 45 46 48 50 50 51 54 53 54 53 52 48 39 28 17 18 17 22 13 23 29 23 21 18 18 20 18 17 28 34 37 12 26 26 30 33 38 36
44 46 47 44 44 43 43 44 45 45 47 48 50 52 51 52 53 55 53 49 47 34 21 11 9 9 19 15 20 24 27 25 21 18 18 12 18 28 36 24 20 25 27 38 40 52 26
41 46 44 44 43 43 46 47 46 47 47 50 53 55 55 60 59 59 51 42 34 17 7 4 14 18 26 21 15 22 25 24 18 20 21 21 21 23 26 25 24 34 39 29 36 30 23
44 45 44 41 41 45 48 51 51 49 49 52 55 57 63 69 70 56 39 19 8 4 23 23 21 17 6 12 9 14 24 23 20 21 25 32 23 26 34 35 37 38 29 30 14 6 6
44 45 43 39 42 45 50 54 55 55 52 51 55 61 68 74 49 32 24 15 9 20 26 42 44 33 28 9 14 20 27 21 27 26 25 24 29 31 30 28 21 22 24 28 28 24 19
47 48 45 44 44 47 52 58 57 58 57 54 56 62 73 51 25 7 5 15 22 21 16 23 30 43 32 29 26 29 30 32 23 24 27 30 27 27 10 20 22 26 27 29 30 28 20
47 50 49 46 46 49 54 59 63 61 57 57 57 61 59 34 9 9 13 7 7 10 10 18 14 13 16 26 25 25 31 28 19 31 29 29 36 28 18 22 24 25 28 29 24 18 20
46 48 48 48 49 50 54 58 59 52 56 54 55 58 42 22 12 8 10 10 12 6 6 13 17 14 24 31 27 34 24 30 30 31 20 28 31 22 27 20 20 18 22 17 21 26 29
47 46 46 45 49 56 56 58 56 56 55 52 54 48 31 9 20 15 14 14 11 11 6 10 16 17 21 35 10 25 28 31 24 26 33 32 27 24 18 22 14 11 21 27 30 29 29
43 41 44 45 49 50 53 58 49 52 52 56 50 35 22 13 4 16 17 16 9 11 13 7 4 20 28 19 23 19 27 26 21 19 23 27 29 29 36 31 26 30 25 21 23 21 28
39 43 43 43 46 42 49 46 45 51 54 57 45 18 12 13 10 20 16 17 14 18 19 9 10 18 21 18 20 21 15 19 22 23 26 23 28 23 15 36 26 22 20 13 16 21 30
36 42 43 39 39 45 47 45 45 52 53 53 37 10 13 11 12 11 22 13 8 13 15 19 22 24 28 11 8 3 14 20 18 17 10 20 20 24 29 21 10 10 14 9 16 26 21
39 41 41 39 38 45 43 42 46 51 49 46 35 10 21 12 12 13 19 29 17 11 13 18 21 21 16 7 8 9 19 3 13 24 9 7 19 19 29 25 22 25 20 17 12 9 24
42 40 38 34 37 42 41 43 46 52 47 33 22 13 11 5 12 22 18 7 5 20 9 11 24 27 26 23 12 21 8 6 10 13 11 19 13 17 22 22 22 16 20 23 11 14 8
42 38 35 36 36 39 43 43 43 47 53 35 12 9 7 4 20 24 19 8 5 13 9 7 11 23 22 26 25 33 29 13 18 6 8 8 7 21 32 31 29 25 21 16 14 14 20
41 41 38 36 36 37 43 36 36 38 46 56 19 27 4 5 11 17 9 4 9 11 7 6 6 21 27 22 17 20 17 7 7 10 0 3 8 16 21 29 32 17 15 19 19 19 25
41 36 36 35 33 37 36 29 30 30 33 38 16 8 12 7 5 12 20 19 12 9 6 12 17 18 20 28 20 14 23 8 17 5 16 3 16 22 21 14 12 29 29 28 23 16 25
43 39 35 35 30 29 29 26 26 26 26 32 12 8 6 8 12 13 15 21 23 11 11 8 7 16 13 11 17 14 16 11 27 12 11 13 23 27 33 35 33 38 38 37 33 35 33
43 41 37 36 35 28 27 24 25 23 22 16 16 14 29 32 19 13 11 3 14 12 7 9 10 18 16 18 18 28 19 19 13 4 15 10 19 21 30 34 38 40 37 33 35 35 39
43 40 36 42 39 32 22 25 26 19 18 10 19 17 19 24 16 12 7 8 7 11 14 5 11 14 18 18 16 28 29 30 27 16 6 7 5 7 14 24 29 22 25 21 11 16 21
42 40 41 38 36 32 25 24 28 21 16 17 16 23 19 17 17 10 13 17 16 16 17 27 20 17 15 24 33 39 44 41 35 31 34 14 17 10 10 23 21 12 17 10 17 18 28
37 37 38 31 26 33 29 24 28 24 20 18 11 14 7 14 27 19 15 15 19 25 15 21 19 7 13 16 11 14 13 15 25 34 28 28 17 5 6 15 26 24 12 13 13 17 28
33 31 36 40 34 32 30 25 32 30 24 19 11 7 10 12 4 17 19 13 11 13 17 17 8 9 9 4 4 7 5 3 4 8 30 30 31 15 14 9 7 13 1 15 20 14 31
29 31 32 35 38 35 33 34 39 34 25 18 15 13 6 18 26 10 8 7 7 8 9 24 9 3 4 3 4 8 11 12 7 12 10 16 8 20 20 13 13 16 22 24 11 16 43
22 29 34 28 35 31 29 33 26 24 24 21 21 20 9 10 35 29 19 23 19 13 7 12 13 6 4 5 6 8 6 5 7 11 12 13 11 12 16 10 9 27 15 10 17 32 39
30 21 24 29 26 24 26 21 20 22 25 22 26 21 19 18 22 32 37 37 31 23 8 8 3 4 5 2 4 9 7 4 8 2 10 6 10 4 4 3 19 23 26 17 22 31 38
Wind_Direction_500mb
345 339 339 337 335 334 332 331 331 327 325 323 322 323 326 330 332 332 334 336 331 327 310 312 315 317 322 266 264 267 286 280 207 195 205 232 246 227 224 231 229 239 235 233 249 263 226
345 339 339 334 334 332 328 329 328 327 326 325 322 321 322 326 326 326 326 328 325 315 306 296 309 304 307 266 245 302 203 211 153 188 211 238 249 241 248 246 232 234 236 244 247 261 258
348 347 344 341 337 333 331 328 327 327 328 327 324 324 322 321 321 321 321 323 318 313 303 285 299 293 276 246 229 233 213 202 198 213 239 246 259 290 262 266 263 245 258 229 249 224 244
352 352 348 346 340 338 336 332 330 329 329 327 325 326 324 320 321 317 316 318 315 306 292 273 285 284 260 264 236 238 219 223 228 229 242 259 258 272 266 272 294 251 251 255 230 227 227
349 348 347 344 344 345 344 343 337 334 332 330 330 328 326 324 322 316 313 314 312 300 275 252 282 242 265 258 242 219 214 223 229 232 231 259 246 255 261 250 249 232 246 233 252 216 193
339 342 345 342 347 347 346 343 340 338 335 333 331 328 324 322 318 314 310 310 305 288 294 210 225 257 250 234 216 204 205 213 235 226 228 227 236 237 237 247 238 225 218 234 251 156 191
331 334 338 340 344 343 342 338 337 335 334 333 328 327 322 318 315 307 304 312 311 199 206 217 203 244 100 159 127 210 198 206 232 229 234 223 235 234 236 222 247 283 305 312 308 22 280
324 326 328 331 332 334 333 332 329 326 328 329 330 327 325 324 317 297 279 219 300 322 299 247 243 235 253 255 198 205 193 208 219 232 216 252 229 251 265 272 297 297 289 283 289 295 283
317 323 321 324 325 328 329 331 330 328 325 326 330 330 330 335 334 360 295 247 290 302 282 294 213 225 226 221 242 189 191 207 228 231 248 242 246 223 280 293 277 259 264 276 282 286 304
315 318 318 320 322 324 325 327 328 327 325 325 328 331 335 346 358 345 265 309 308 298 273 152 168 183 193 200 230 221 197 207 237 255 248 255 255 261 197 248 255 252 246 246 264 281 269
316 314 315 316 317 320 324 327 329 333 329 327 328 332 335 349 315 345 305 306 308 266 278 197 115 152 165 187 117 198 196 217 240 254 251 264 247 251 265 255 260 261 311 323 295 280 283
314 312 311 316 319 322 325 327 328 330 333 330 328 328 322 328 333 345 325 309 296 234 289 188 135 182 177 225 203 140 200 219 252 251 273 275 277 307 264 250 274 310 293 285 273 259 257
312 312 315 319 320 322 323 324 327 328 333 329 328 320 295 256 216 317 311 292 252 263 194 96 120 170 200 192 225 181 192 204 230 245 245 266 270 267 288 270 261 258 238 260 269 237 251
312 314 317 317 319 323 324 327 326 331 333 330 331 313 288 274 277 302 311 266 265 305 30 75 302 285 258 257 226 212 219 234 226 245 282 263 274 267 286 271 265 284 286 265 264 300 303
309 313 316 318 320 323 327 334 332 332 334 332 335 330 314 303 266 296 287 256 282 335 26 345 320 264 261 151 342 240 307 285 275 257 240 303 264 344 256 265 299 249 269 6 294 276 278
312 315 315 316 320 323 327 334 331 332 336 339 334 309 254 248 247 272 264 270 316 67 13 329 293 320 315 183 242 195 223 208 292 252 213 300 306 284 259 286 271 267 288 293 263 292 263
313 313 312 315 318 324 328 334 333 335 338 341 321 264 151 218 241 251 248 251 224 62 38 326 331 314 309 311 261 267 280 273 244 223 213 242 238 272 311 257 252 292 233 239 276 242 258
307 308 310 311 311 320 325 330 332 339 339 350 288 265 150 175 238 242 264 33 36 310 309 312 300 297 299 314 296 292 284 224 275 284 218 108 289 277 272 258 269 289 267 249 214 249 258
298 302 305 306 308 321 319 323 329 338 343 346 295 286 174 181 268 315 221 331 311 253 330 313 281 297 313 288 301 287 304 96 253 246 306 85 246 279 263 246 239 237 279 259 254 261 266
288 286 291 295 301 320 320 318 321 333 336 338 291 288 187 221 260 325 346 310 288 118 315 351 322 313 308 293 266 271 284 348 207 159 99 314 263 251 276 292 215 281 281 272 263 259 273
281 282 287 287 291 315 322 318 315 322 326 331 254 6 7 310 53 343 301 306 290 321 24 346 296 34 346 289 323 312 14 4 304 208 227 234 263 275 279 282 281 275 271 271 271 271 271
278 273 279 284 285 300 323 316 315 319 317 308 307 350 336 289 279 302 272 353 336 334 314 307 299 12 327 286 319 307 331 312 288 258 255 228 261 278 277 274 262 262 267 268 263 268 266
277 265 265 266 272 272 301 312 311 314 317 318 343 315 282 296 266 229 25 20 299 282 300 316 344 312 288 320 296 303 299 291 271 271 272 307 276 302 268 273 284 275 275 300 5 327 348
279 261 257 269 281 268 282 297 300 305 288 291 325 329 308 279 280 289 328 300 304 319 286 292 294 269 293 315 302 280 261 255 255 249 244 240 270 263 283 297 277 311 23 26 6 350 3
278 257 256 267 265 271 277 274 295 293 285 264 292 320 305 289 317 308 334 334 318 304 276 289 302 312 321 312 300 282 233 229 234 234 230 218 228 260 257 266 286 271 48 26 9 357 27
286 254 255 253 264 283 273 265 288 283 275 270 256 260 280 291 6 347 316 310 312 315 297 268 330 294 297 303 312 271 267 244 204 180 203 203 216 209 269 261 283 80 141 357 308 267 8
281 266 260 259 265 269 264 277 278 269 261 247 226 242 262 278 285 351 353 322 314 328 281 292 326 297 283 206 255 260 255 131 221 166 171 192 196 228 242 242 271 23 350 334 277 342 345
280 266 260 268 261 252 273 283 262 242 240 244 239 236 235 238 283 293 274 257 257 246 255 358 288 358 153 211 252 263 302 348 280 136 154 199 196 199 233 245 247 15 24 30 5 341 334
264 268 266 263 253 260 278 271 234 241 232 233 231 239 252 249 268 278 272 256 246 253 196 225 5 241 240 273 271 303 311 333 307 209 138 229 190 228 263 131 82 63 80 39 357 341 339
Wind_Speed_850mb
37 38 37 37 38 38 37 37 38 39 40 42 47 51 53 52 50 49 48 46 41 35 29 28 28 26 21 16 34 14 8 6 7 19 25 24 33 31 33 36 48 40 42 53 54 58 10
39 40 40 40 39 40 41 41 42 42 42 44 45 49 52 51 51 50 51 48 47 37 31 27 29 26 19 27 9 12 10 6 11 16 19 28 28 28 36 35 35 40 45 40 32 41 30
39 41 42 43 43 41 42 44 45 45 45 45 47 48 51 53 53 53 53 52 47 42 31 23 26 24 23 44 11 9 16 15 15 15 21 22 29 35 24 30 36 35 23 31 44 32 36
42 44 43 42 41 43 43 44 44 45 46 48 50 50 51 54 53 54 53 52 48 39 28 17 18 17 22 13 23 29 23 21 18 18 20 18 17 28 34 37 12 26 26 30 33 38 36
44 46 47 44 44 43 43 44 45 45 47 48 50 52 51 52 53 55 53 49 47 34 21 11 9 9 19 15 20 24 27 25 21 18 18 12 18 28 36 24 20 25 27 38 40 52 26
41 46 44 44 43 43 46 47 46 47 47 50 53 55 55 60 59 59 51 42 34 17 7 4 14 18 26 21 15 22 25 24 18 20 21 21 21 23 26 25 24 34 39 29 36 30 23
44 45 44 41 41 45 48 51 51 49 49 52 55 57 63 69 70 56 39 19 8 4 23 23 21 17 6 12 9 14 24 23 20 21 25 32 23 26 34 35 37 38 29 30 14 6 6
44 45 43 39 42 45 50 54 55 55 52 51 55 61 68 74 49 32 24 15 9 20 26 42 44 33 28 9 14 20 27 21 27 26 25 24 29 31 30 28 21 22 24 28 28 24 19
47 48 45 44 44 47 52 58 57 58 57 54 56 62 73 51 25 7 5 15 22 21 16 23 30 43 32 29 26 29 30 32 23 24 27 30 27 27 10 20 22 26 27 29 30 28 20
47 50 49 46 46 49 54 59 63 61 57 57 57 61 59 34 9 9 13 7 7 10 10 18 14 13 16 26 25 25 31 28 19 31 29 29 36 28 18 22 24 25 28 29 24 18 20
46 48 48 48 49 50 54 58 59 52 56 54 55 58 42 22 12 8 10 10 12 6 6 13 17 14 24 31 27 34 24 30 30 31 20 28 31 22 27 20 20 18 22 17 21 26 29
47 46 46 45 49 56 56 58 56 56 55 52 54 48 31 9 20 15 14 14 11 11 6 10 16 17 21 35 10 25 28 31 24 26 33 32 27 24 18 22 14 11 21 27 30 29 29
43 41 44 45 49 50 53 58 49 52 52 56 50 35 22 13 4 16 17 16 9 11 13 7 4 20 28 19 23 19 27 26 21 19 23 27 29 29 36 31 26 30 25 21 23 21 28
39 43 43 43 46 42 49 46 45 51 54 57 45 18 12 13 10 20 16 17 14 18 19 9 10 18 21 18 20 21 15 19 22 23 26 23 28 23 15 36 26 22 20 13 16 21 30
36 42 43 39 39 45 47 45 45 52 53 53 37 10 13 11 12 11 22 13 8 13 15 19 22 24 28 11 8 3 14 20 18 17 10 20 20 24 29 21 10 10 14 9 16 26 21
39 41 41 39 38 45 43 42 46 51 49 46 35 10 21 12 12 13 19 29 17 11 13 18 21 21 16 7 8 9 19 3 13 24 9 7 19 19 29 25 22 25 20 17 12 9 24
42 40 38 34 37 42 41 43 46 52 47 33 22 13 11 5 12 22 18 7 5 20 9 11 24 27 26 23 12 21 8 6 10 13 11 19 13 17 22 22 22 16 20 23 11 14 8
42 38 35 36 36 39 43 43 43 47 53 35 12 9 7 4 20 24 19 8 5 13 9 7 11 23 22 26 25 33 29 13 18 6 8 8 7 21 32 31 29 25 21 16 14 14 20
41 41 38 36 36 37 43 36 36 38 46 56 19 27 4 5 11 17 9 4 9 11 7 6 6 21 27 22 17 20 17 7 7 10 0 3 8 16 21 29 32 17 15 19 19 19 25
41 36 36 35 33 37 36 29 30 30 33 38 16 8 12 7 5 12 20 19 12 9 6 12 17 18 20 28 20 14 23 8 17 5 16 3 16 22 21 14 12 29 29 28 23 16 25
43 39 35 35 30 29 29 26 26 26 26 32 12 8 6 8 12 13 15 21 23 11 11 8 7 16 13 11 17 14 16 11 27 12 11 13 23 27 33 35 33 38 38 37 33 35 33
43 41 37 36 35 28 27 24 25 23 22 16 16 14 29 32 19 13 11 3 14 12 7 9 10 18 16 18 18 28 19 19 13 4 15 10 19 21 30 34 38 40 37 33 35 35 39
43 40 36 42 39 32 22 25 26 19 18 10 19 17 19 24 16 12 7 8 7 11 14 5 11 14 18 18 16 28 29 30 27 16 6 7 5 7 14 24 29 22 25 21 11 16 21
42 40 41 38 36 32 25 24 28 21 16 17 16 23 19 17 17 10 13 17 16 16 17 27 20 17 15 24 33 39 44 41 35 31 34 14 17 10 10 23 21 12 17 10 17 18 28
37 37 38 31 26 33 29 24 28 24 20 18 11 14 7 14 27 19 15 15 19 25 15 21 19 7 13 16 11 14 13 15 25 34 28 28 17 5 6 15 26 24 12 13 13 17 28
33 31 36 40 34 32 30 25 32 30 24 19 11 7 10 12 4 17 19 13 11 13 17 17 8 9 9 4 4 7 5 3 4 8 30 30 31 15 14 9 7 13 1 15 20 14 31
29 31 32 35 38 35 33 34 39 34 25 18 15 13 6 18 26 10 8 7 7 8 9 24 9 3 4 3 4 8 11 12 7 12 10 16 8 20 20 13 13 16 22 24 11 16 43
22 29 34 28 35 31 29 33 26 24 24 21 21 20 9 10 35 29 19 23 19 13 7 12 13 6 4 5 6 8 6 5 7 11 12 13 11 12 16 10 9 27 15 10 17 32 39
30 21 24 29 26 24 26 21 20 22 25 22 26 21 19 18 22 32 37 37 31 23 8 8 3 4 5 2 4 9 7 4 8 2 10 6 10 4 4 3 19 23 26 17 22 31 38
Wind_Direction_850mb
345 339 339 337 335 334 332 331 331 327 325 323 322 323 326 330 332 332 334 336 331 327 310 312 315 317 322 266 264 267 286 280 207 195 205 232 246 227 224 231 229 239 235 233 249 263 226
345 339 339 334 334 332 328 329 328 327 326 325 322 321 322 326 326 326 326 328 325 315 306 296 309 304 307 266 245 302 203 211 153 188 211 238 249 241 248 246 232 234 236 244 247 261 258
348 347 344 341 337 333 331 328 327 327 328 327 324 324 322 321 321 321 321 323 318 313 303 285 299 293 276 246 229 233 213 202 198 213 239 246 259 290 262 266 263 245 258 229 249 224 244
352 352 348 346 340 338 336 332 330 329 329 327 325 326 324 320 321 317 316 318 315 306 292 273 285 284 260 264 236 238 219 223 228 229 242 259 258 272 266 272 294 251 251 255 230 227 227
349 348 347 344 344 345 344 343 337 334 332 330 330 328 326 324 322 316 313 314 312 300 275 252 282 242 265 258 242 219 214 223 229 232 231 259 246 255 261 250 249 232 246 233 252 216 193
339 342 345 342 347 347 346 343 340 338 335 333 331 328 324 322 318 314 310 310 305 288 294 210 225 257 250 234 216 204 205 213 235 226 228 227 236 237 237 247 238 225 218 234 251 156 191
331 334 338 340 344 343 342 338 337 335 334 333 328 327 322 318 315 307 304 312 311 199 206 217 203 244 100 159 127 210 198 206 232 229 234 223 235 234 236 222 247 283 305 312 308 22 280
324 326 328 331 332 334 333 332 329 326 328 329 330 327 325 324 317 297 279 219 300 322 299 247 243 235 253 255 198 205 193 208 219 232 216 252 229 251 265 272 297 297 289 283 289 295 283
317 323 321 324 325 328 329 331 330 328 325 326 330 330 330 335 334 360 295 247 290 302 282 294 213 225 226 221 242 189 191 207 228 231 248 242 246 223 280 293 277 259 264 276 282 286 304
315 318 318 320 322 324 325 327 328 327 325 325 328 331 335 346 358 345 265 309 308 298 273 152 168 183 193 200 230 221 197 207 237 255 248 255 255 261 197 248 255 252 246 246 264 281 269
316 314 315 316 317 320 324 327 329 333 329 327 328 332 335 349 315 345 305 306 308 266 278 197 115 152 165 187 117 198 196 217 240 254 251 264 247 251 265 255 260 261 311 323 295 280 283
314 312 311 316 319 322 325 327 328 330 333 330 328 328 322 328 333 345 325 309 296 234 289 188 135 182 177 225 203 140 200 219 252 251 273 275 277 307 264 250 274 310 293 285 273 259 257
312 312 315 319 320 322 323 324 327 328 333 329 328 320 295 256 216 317 311 292 252 263 194 96 120 170 200 192 225 181 192 204 230 245 245 266 270 267 288 270 261 258 238 260 269 237 251
312 314 317 317 319 323 324 327 326 331 333 330 331 313 288 274 277 302 311 266 265 305 30 75 302 285 258 257 226 212 219 234 226 245 282 263 274 267 286 271 265 284 286 265 264 300 303
309 313 316 318 320 323 327 334 332 332 334 332 335 330 314 303 266 296 287 256 282 335 26 345 320 264 261 151 342 240 307 285 275 257 240 303 264 344 256 265 299 249 269 6 294 276 278
312 315 315 316 320 323 327 334 331 332 336 339 334 309 254 248 247 272 264 270 316 67 13 329 293 320 315 183 242 195 223 208 292 252 213 300 306 284 259 286 271 267 288 293 263 292 263
313 313 312 315 318 324 328 334 333 335 338 341 321 264 151 218 241 251 248 251 224 62 38 326 331 314 309 311 261 267 280 273 244 223 213 242 238 272 311 257 252 292 233 239 276 242 258
307 308 310 311 311 320 325 330 332 339 339 350 288 265 150 175 238 242 264 33 36 310 309 312 300 297 299 314 296 292 284 224 275 284 218 108 289 277 272 258 269 289 267 249 214 249 258
298 302 305 306 308 321 319 323 329 338 343 346 295 286 174 181 268 315 221 331 311 253 330 313 281 297 313 288 301 287 304 96 253 246 306 85 246 279 263 246 239 237 279 259 254 261 266
288 286 291 295 301 320 320 318 321 333 336 338 291 288 187 221 260 325 346 310 288 118 315 351 322 313 308 293 266 271 284 348 207 159 99 314 263 251 276 292 215 281 281 272 263 259 273
281 282 287 287 291 315 322 318 315 322 326 331 254 6 7 310 53 343 301 306 290 321 24 346 296 34 346 289 323 312 14 4 304 208 227 234 263 275 279 282 281 275 271 271 271 271 271
278 273 279 284 285 300 323 316 315 319 317 308 307 350 336 289 279 302 272 353 336 334 314 307 299 12 327 286 319 307 331 312 288 258 255 228 261 278 277 274 262 262 267 268 263 268 266
277 265 265 266 272 272 301 312 311 314 317 318 343 315 282 296 266 229 25 20 299 282 300 316 344 312 288 320 296 303 299 291 271 271 272 307 276 302 268 273 284 275 275 300 5 327 348
279 261 257 269 281 268 282 297 300 305 288 291 325 329 308 279 280 289 328 300 304 319 286 292 294 269 293 315 302 280 261 255 255 249 244 240 270 263 283 297 277 311 23 26 6 350 3
278 257 256 267 265 271 277 274 295 293 285 264 292 320 305 289 317 308 334 334 318 304 276 289 302 312 321 312 300 282 233 229 234 234 230 218 228 260 257 266 286 271 48 26 9 357 27
286 254 255 253 264 283 273 265 288 283 275 270 256 260 280 291 6 347 316 310 312 315 297 268 330 294 297 303 312 271 267 244 204 180 203 203 216 209 269 261 283 80 141 357 308 267 8
281 266 260 259 265 269 264 277 278 269 261 247 226 242 262 278 285 351 353 322 314 328 281 292 326 297 283 206 255 260 255 131 221 166 171 192 196 228 242 242 271 23 350 334 277 342 345
280 266 260 268 261 252 273 283 262 242 240 244 239 236 235 238 283 293 274 257 257 246 255 358 288 358 153 211 252 263 302 348 280 136 154 199 196 199 233 245 247 15 24 30 5 341 334
264 268 266 263 253 260 278 271 234 241 232 233 231 239 252 249 268 278 272 256 246 253 196 225 5 241 240 273 271 303 311 333 307 209 138 229 190 228 263 131 82 63 80 39 357 341 339